GAOFEN 12 (03)

Satellite information

Favourite Embed

Satellite Type and Status

PAYLOADIN ORBIT

Key statistics

Satellite GAOFEN 12 (03) at a glance.

Uptime

1108

Days in orbit

Revolutions

≈ 14.8

Per day

Orbit

SSO

Sun Synchronous Orbit

Inclination

97.9

Latest

Satellite identification and parameters

Extended collection of information and parameters for GAOFEN 12 (03).

Object identification

Identified? True

Debris? False

Object name: GAOFEN 12 (03)

International designator: 2022-069A

Object number (NORAD): 52912

Object ID (CCSDS): 52912

Country: PEOPLES REPUBLIC OF CHINA (PRC)

Current information (Y/N): Y

RCS size: LARGE

Orbital parameters

Period: 97.25 minutes

Inclination: 97.8681 deg

SMA: 7005.188 km

Apoapsis: 628.231 km

Periapsis: 625.874 km

RAAN: 80.6391 deg

Eccentricy: 0.0001682

Argument of periapsis: 97.4557 deg

Mean anomaly: 262.6846 deg

Mean motion: 14.80720536 rev/day

Mean motion (dot): 0.0000088 rev/day2

B* drag term: 0.00012103 1/REarth

Two-line elements (TLE)

Creation date: July 9, 2025, 2:22 a.m.

Reference frame: TEME

Reference center: EARTH

Epoch: July 8, 2025, 10:24 p.m. UTC

TLE line 0: 0 GAOFEN 12 (03)

TLE line 1: 1 52912U 22069A 25189.93368144 .00000880 00000-0 12103-3 0 9997

TLE line 2: 2 52912 97.8681 80.6391 0001682 97.4557 262.6846 14.80720536163843

Live tracking on map

Real-time ground track for satellite GAOFEN 12 (03).

In-orbit conjunctions

There are no conjunctions computed for GAOFEN 12 (03), at the moment. Check back to stay up to date, as we update our databases every day.

Go to all conjunctions

Associated space launch

Gaofen is a series of civilian Earth observation satellites developed and launched for the China High-definition Earth Observation System (CHEOS), a state-sponsored programme aimed to develop a near-real time, all-weather, global surveillance network consisting of satellite, near-space (stratosphere) airships, and aerial observation platforms.

GAOFEN 12 (03) was lifted into orbit during the mission ‘Long March 4C | Gaofen-12-03’, on board a Long March 4C space rocket.

The launch took place on June 27, 2022, 3:46 p.m. from Launch Area 4 (SLS-2 / 603).

For more information about the launch, click the button.

Launch to space Long March 4C | Gaofen-12-03
Long March 4C | Gaofen-12-03

Agency: N/A

Status: Launch Successful

Launch date: June 27, 2022, 3:46 p.m. UTC

Rocket: Long March 4C

Launch pad: Launch Area 4 (SLS-2 / 603)

Location: Jiuquan Satellite Launch Center, People's Republic of China

...

Latest news about this satellite

There are no fresh news available about this satellite. Check back as we update our databases every day.


Newsletter sign-up

Weekly statistics, charts and insights to help you stay on top of the space industry.